This is the latest recevied weather packets stored in our database for station/object DL0BB-10. If no packets are shown the sender has not sent any weather packets the latest 10 day(s).
| Time | Temp. | Humidity | Pressure | Rain* | Wind** | Luminosity | Snow |
|---|---|---|---|---|---|---|---|
| 1788408891 | 24.44° C | 39% | 1022.8 hPa | - | - | - | - |
| 1788407991 | 25° C | 38% | 1022.5 hPa | - | - | - | - |
| 1788407091 | 25.56° C | 37% | 1022.9 hPa | - | - | - | - |
| 1788406191 | 24.44° C | 39% | 1023 hPa | - | - | - | - |
| 1788405290 | 25° C | 39% | 1023.1 hPa | - | - | - | - |
| 1788404390 | 25° C | 38% | 1023 hPa | - | - | - | - |
| 1788403493 | 25.56° C | 38% | 1023 hPa | - | - | - | - |
| 1788402593 | 25° C | 39% | 1023.1 hPa | - | - | - | - |
| 1788401693 | 25° C | 39% | 1023.1 hPa | - | - | - | - |
| 1788400793 | 25.56° C | 38% | 1023.1 hPa | - | - | - | - |
| 1788399892 | 25.56° C | 38% | 1023.1 hPa | - | - | - | - |
| 1788398992 | 25° C | 39% | 1023.2 hPa | - | - | - | - |
| 1788398092 | 25° C | 39% | 1023.1 hPa | - | - | - | - |
| 1788397192 | 26.11° C | 38% | 1023.1 hPa | - | - | - | - |
| 1788396292 | 25.56° C | 39% | 1022.9 hPa | - | - | - | - |
| 1788395392 | 25° C | 39% | 1023 hPa | - | - | - | - |
| 1788394506 | 25.56° C | 39% | 1023.1 hPa | - | - | - | - |
| 1788393592 | 26.11° C | 38% | 1023.1 hPa | - | - | - | - |
| 1788392692 | 25.56° C | 40% | 1023.1 hPa | - | - | - | - |
| 1788391792 | 25.56° C | 40% | 1023 hPa | - | - | - | - |
| 1788390891 | 26.11° C | 39% | 1023.1 hPa | - | - | - | - |
| 1788389991 | 26.67° C | 38% | 1022.9 hPa | - | - | - | - |
| 1788389091 | 25.56° C | 40% | 1023 hPa | - | - | - | - |
| 1788388191 | 25.56° C | 40% | 1023.1 hPa | - | - | - | - |
| 1788387291 | 26.11° C | 39% | 1022.9 hPa | - | - | - | - |
* Rain since midnight (hover to see other rain measurements)
** Current wind speed in m/s (hover to see current wind gust speed)